www.pogodaiklimat.ru

Погода и климат >> Архив погоды >> Украина >> Херсон


АРХИВ ПОГОДЫ в Херсоне

Время (UTC), дата Ветер
(напр.,м/с)
 
Видим.   Явления Облачность Т
(С)
Тd
(С)
f
(%)
Тe
(С)
Тes
(С)
Комфортность P
(гПа)
Po
(гПа)
Тmin
(С)
Tmax
(С)
R
(мм)
R24
(мм)
S
(см)
03 9.06 З 1 4000 м дымка {гроза, ливн. осадки} 9/9 600 м
[Cb calv]
+18.4 +17.1 92 +20 +20 тепло 1017.2 1010.9
06 9.06 С 3 10 км {гроза, ливн. осадки} 8/3 600 м
[Cb calv Ac lent Ci]
+22.6 +17.4 72 +27 +31 душно 1018.3 1012.0 +17.2 10
09 9.06 В 3 20 км 8/3 600 м
[Cu med, cong Ac lent Ci fib]
+27.0 +16.9 54 +31 +38 душно 1018.8 1012.6
12 9.06 СВ 5 20 км 4/3 600 м
[Cu hum Ci fib]
+28.0 +17.9 54 +32 +38 душно 1017.7 1011.6
15 9.06 СВ 5 20 км 6/4 600 м
[Cb calv Ci fib]
+27.9 +17.4 53 +32 +33 душно 1016.6 1010.5
18 9.06 СВ 2 10 км {гроза, ливн. осадки} 8/6 600 м
[Cb calv Ac cuf]
+23.1 +17.6 71 +28 +28 душно 1016.9 1010.7 +28.6 0.0
21 9.06 С 2 10 км 4/0 2000 м
[Ac lent Ci fib]
+20.8 +18.4 86 +26 +26 душно 1018.1 1011.8
00 10.06 В 1 10 км 3/0 2000 м
[Ac und]
+20.4 +17.1 81 +25 +25 комфорт 1017.0 1010.7
03 10.06 В 1 10 км 3/0
[Ci fib]
+19.9 +16.4 80 +23 +24 комфорт 1016.8 1010.5
06 10.06 СВ 5 10 км 3/0
[Ci fib]
+25.0 +16.7 60 +29 +33 душно 1016.9 1010.7 +19.4
09 10.06 СВ 4 10 км 3/0
[Ci fib]
+29.4 +17.8 50 +34 +45 очень
душно
1016.3 1010.2
12 10.06 СВ 4 10 км 6/3 600 м
[Cu hum Ac trans Ci fib]
+31.0 +17.3 44 +35 +40 очень
душно
1014.9 1008.8
15 10.06 СВ 3 10 км 8/0 2000 м
[Ac trans Ci fib]
+30.7 +15.7 40 +33 +36 душно 1013.9 1007.8
18 10.06 С 3 10 км 5/3 600 м
[Sc Ac trans]
+23.0 +14.3 58 +27 +27 душно 1014.2 1008.0 +31.6
21 10.06 СВ 1 10 км 9/4 600 м
[Sc Ac trans]
+21.5 +15.5 69 +25 +25 комфорт 1014.9 1008.6
00 11.06 С 2 10 км 3/3 600 м
[Sc Ac trans]
+17.9 +16.0 89 +18 +18 тепло 1014.1 1007.8
03 11.06 С 4 10 км 9/4 600 м
[Sc Ac trans Ci fib]
+19.8 +16.7 82 +22 +22 комфорт 1013.8 1007.5
06 11.06 СВ 2 20 км 4/0
[Cc]
+25.9 +16.3 55 +29 +37 душно 1013.7 1007.5 +17.7
09 11.06 СВ 7 20 км 8/0
[Ci]
+30.0 +11.8 33 +31 +35 жарко 1013.1 1007.0
12 11.06 С 4 20 км 4/0
[Ci]
+31.5 +13.4 33 +33 +42 жарко 1012.4 1006.4
15 11.06 СВ 3 20 км 3/0 1500 м
[Ac cuf]
+30.5 +14.6 38 +33 +35 душно 1011.9 1005.8
18 11.06 С 3 20 км 4/0
[Ci]
+24.7 +14.4 53 +27 +27 жарко 1012.2 1006.0 +32.4
21 11.06 С 1 10 км ясно +21.1 +15.4 70 +24 +24 комфорт 1012.7 1006.4
00 12.06 штиль 0 10 км ясно +18.2 +14.4 78 +18 +18 тепло 1011.8 1005.5
03 12.06 С 1 20 км ясно +19.0 +14.3 74 +21 +22 комфорт 1011.3 1005.0
06 12.06 СВ 3 20 км 5/3 600 м
[Cu hum Ac cuf]
+25.1 +15.5 55 +28 +32 жарко 1011.1 1004.9 +17.8
09 12.06 С 3 20 км 1/0 2000 м
[Ac lent]
+30.0 +16.2 43 +33 +47 душно 1011.1 1005.0
12 12.06 С 5 20 км ясно +31.7 +16.9 41 +35 +43 очень
душно
1010.3 1004.3
15 12.06 С 5 20 км ясно +31.1 +15.9 40 +34 +36 душно 1010.0 1004.0
18 12.06 СВ 4 10 км ясно +24.2 +14.0 53 +27 +27 жарко 1010.6 1004.4 +32.2
21 12.06 С 2 10 км ясно +19.3 +14.9 76 +21 +21 комфорт 1011.9 1005.6
00 13.06 С 3 10 км ясно +20.2 +14.2 68 +23 +23 комфорт 1012.2 1005.9
03 13.06 С 2 10 км 9/8 600 м
[Cb calv Ac lent]
+18.2 +14.9 81 +19 +19 тепло 1012.1 1005.8
06 13.06 С 4 20 км 8/6 600 м
[Cb calv Ac lent Ci fib]
+22.0 +15.5 67 +26 +28 душно 1012.9 1006.7 +17.9
09 13.06 С 4 10 км гроза, ливневой дождь 10/10 600 м
[Cb cap]
+19.5 +17.9 90 +22 +22 комфорт 1014.4 1008.1
12 13.06 СЗ 4 10 км {гроза, ливн. осадки} 10/10 600 м
[Cb calv]
+21.3 +18.1 82 +26 +26 душно 1013.2 1007.0
15 13.06 СЗ 3 10 км 4/0 2000 м
[Ac lent Ci fib]
+24.8 +20.4 77 +31 +33 очень
душно
1012.7 1006.5
18 13.06 С 2 10 км 3/0
[Ci fib]
+22.0 +17.6 76 +27 +27 душно 1012.6 1006.4 +26.8 4
21 13.06 С 2 10 км 5/0 2000 м
[Ac lent Ci fib]
+20.0 +16.2 79 +23 +23 комфорт 1014.3 1008.0
00 14.06 С 3 10 км 3/0
[Ci fib]
+19.4 +15.9 80 +21 +21 комфорт 1014.6 1008.3
03 14.06 С 3 10 км 8/0 2000 м
[Ac und Ci]
+18.8 +15.8 83 +20 +20 тепло 1014.9 1008.6
06 14.06 СВ 3 10 км 4/0
[Ci fib]
+25.2 +17.7 63 +29 +36 душно 1015.7 1009.5 +18.7
09 14.06 СВ 4 10 км 9/0 2000 м
[Ac trans Ci fib]
+29.1 +18.5 53 +34 +42 очень
душно
1016.3 1010.2
12 14.06 СВ 4 10 км 9/4 600 м
[Sc Ac trans]
+29.6 +18.0 50 +34 +37 очень
душно
1016.3 1010.2
15 14.06 В 1 10 км 8/3 600 м
[Sc Ac trans]
+29.0 +19.5 57 +35 +37 очень
душно
1015.4 1009.3
18 14.06 СВ 2 10 км 4/3 600 м
[Sc Ac trans]
+24.0 +20.0 78 +29 +29 душно 1015.7 1009.5 +31.1
21 14.06 штиль 0 10 км ясно +21.7 +18.0 79 +26 +26 душно 1016.4 1010.1
00 15.06 штиль 0 10 км ясно +19.7 +17.4 87 +22 +22 комфорт 1015.8 1009.5
03 15.06 штиль 0 10 км ясно +19.1 +17.3 89 +21 +21 комфорт 1015.6 1009.3
06 15.06 штиль 0 20 км 4/0
[Ci]
+26.9 +14.4 46 +29 +40 жарко 1015.7 1009.5 +17.8
09 15.06 СВ 1 20 км 1/1 600 м
[Cu hum]
+29.7 +15.0 41 +32 +51 опасность
солнечного
удара
1015.1 1009.0
12 15.06 СВ 2 20 км ясно +31.0 +12.8 33 +32 +47 жарко 1013.5 1007.4
15 15.06 штиль 0 20 км ясно +30.6 +9.2 26 +30 +35 жарко 1012.5 1006.4
18 15.06 штиль 0 20 км 1/1 600 м
[Sc diur, vesp]
+24.8 +13.1 48 +27 +27 жарко 1012.2 1006.0 +31.5
21 15.06 штиль 0 10 км ясно +21.4 +14.6 65 +24 +24 комфорт 1012.6 1006.3
00 16.06 штиль 0 10 км ясно +19.6 +14.8 74 +21 +21 комфорт 1012.0 1005.7

 

Местоположение метеостанции Херсон (Херсонская область, Украина): широта 46.63 долгота 32.57 высота над уровнем моря 54 м.

В архиве по умолчанию представлена погода в Херсоне за последнюю неделю. Архивные данные за месяц целиком и за предыдущие месяцы, начиная с января 2011 года, Вы можете получить, выбрав интересующий диапазон дат из раскрывающегося списка и нажав кнопку "Ввод!".


*Определитесь, кто Вы:
робот инопланетянин человек

Внимание! Время в таблицах - всемирное. Для получения местного времени необходимо прибавить поправку, которая равна 2 ч.

Смотрите также архив погоды в соседних городах и на ближайших метеорологических станциях:

Погода в Бехтерах (Херсонская область, Украина) (47 км)
Погода в Новой Каховке (Херсонская область, Украина) (63 км)
Погода в Николаеве (Николаевская область, Украина) (65 км)
Погода в Очакове (Николаевская область, Украина) (78 км)
Погода в Баштанке (Николаевская область, Украина) (88 км)
Погода в Хорлах (Херсонская область, Украина) (93 км)
Погода в Великой Александровке (Херсонская область, Украина) (94 км)
Погода в Аскании-Нове (Херсонская область, Украина) (102 км)
Погода в Раздольном (Крым, Россия) (118 км)
Погода в Черноморском (Крым, Россия) (124 км)

Пояснения к столбцам:

Ветер - указаны скорость ветра в м/с - средняя за 10 мин, порывы в срок и между сроками (в фигурных скобках) и направление, откуда дует ветер: С - северный, СВ - северо-восточный, В - восточный, ЮВ - юго-восточный, Ю - южный, ЮЗ - юго-западный, З - западный, СЗ - северо-западный.
Видимость - горизонтальная дальность видимости в метрах или километрах. При видимости от 1 до 10 км при отсутствии осадков обычно наблюдается дымка, при ухудшении видимости до 1 км и менее - туман. В сухую погоду видимость может ухудшаться дымом, пылью или мглою.
Явления - указаны атмосферные явления, наблюдавшиеся в срок или в последний час перед сроком; фигурными скобками обозначены явления, наблюдавшиеся между сроками (за 1-3 часа до срока); квадратными скобками обозначены град или гололедные отложения с указанием их диаметра в мм.
Облачность - указаны через наклонную черту общая и нижняя облачность в баллах и высота нижней границы облаков в метрах; квадратными скобками обозначены формы облаков: Ci - перистые, Cs - перисто-слоистые, Cc - перисто-кучевые, Ac - высококучевые, As - высокослоистые, Sc - слоисто-кучевые, Ns - слоисто-дождевые, Cu - кучевые, Cb - кучево-дождевые. Подробнее классификацию облаков см. в Атласе облаков (PDF).
T - Температура воздуха - температура, измеренная на высоте 2 м над землей.
Td - Температура точки росы - температура, при понижении до которой содержащийся в воздухе водяной пар достигнет насыщения.
f - Относительная влажность воздуха - влажноcть воздуха, измеренная на высоте 2 м над землей.
Te - Эффективная температура - температура, которую ощущает одетый по сезону человек в тени. Характеристика душности погоды. При расчете учитывается влияние влажности воздуха и скорости ветра на теплоощущения человека.
Tes - Эффективная температура на солнце - температура, которую ощущает человек, с поправкой на солнечный нагрев. Характеристика знойности погоды. Зависит от высоты солнца над горизонтом, облачности и скорости ветра. Ночью, в пасмурную погоду, а также при ветре 12 м/с и более поправка равна нулю.
P - Атмосферное давление - приведенное к уровню моря атмосферное давление.
Po - Атмосферное давление - измеренное на уровне метеостанции атмосферное давление.
Tmin - Минимальная температура - минимум температуры воздуха на высоте 2 м над землей.
Tmax - Максимальная температура - максимум температуры воздуха на высоте 2 м над землей.
R - Количество осадков - Количество выпавших осадков за период времени, мм. При наведении курсора мыши на число - период времени, за который выпало указанное количество осадков.
R24 - Количество осадков - Количество выпавших осадков за 24 часа, мм.
S - Снежный покров - Высота снежного покрова, см. При наведении курсора мыши на число - состояние снежного покрова и степень покрытия местности в баллах.